Location: ?????????
(41.2286°N, 23.0068°E)
Time: 08:04:19
(UTC+00:00)

ACS3 Solar Sail - Pass Details

Date: 08 November 2025
Orbit: 890 x 1003 km, 97.3° (Epoch: 04 December)

Event Time Altitude Azimuth Distance (km) Brightness Sun altitude
Rises 03:46:33 0° 352° (N) 3,537 4.6 -15.5°
Reaches altitude 10° 03:50:31 10° 324° (NW) 2,612 3.6 -14.8°
Enters shadow 03:50:40 10° 323° (NW) 2,591 3.6 -14.8°
